Time,TemperatureF,DewpointF,PressureIn,WindDirection,WindDirectionDegrees,WindSpeedMPH,WindSpeedGustMPH,Humidity,HourlyPrecipIn,Conditions,Clouds,dailyrainin,SoftwareType,DateUTC
2013-03-10 00:00:00,33.7,32.9,29.79,NW,315,1.0,7.0,97,0.00,,SKC,0.00,VWS V14.01,2013-03-10 06:00:00,
2013-03-10 00:13:00,33.8,33.0,29.80,NW,321,0.0,-999.0,97,-99.99,,,0.00,weatherlink.com 1.10,2013-03-10 06:13:00,
2013-03-10 00:28:00,33.7,33.0,29.80,WNW,300,0.0,-999.0,97,-99.99,,,0.00,weatherlink.com 1.10,2013-03-10 06:28:00,
2013-03-10 00:30:00,33.7,32.9,29.80,NW,315,1.0,6.0,97,0.00,,SKC,0.00,VWS V14.01,2013-03-10 06:30:00,
2013-03-10 00:43:00,33.7,33.0,29.79,NNW,344,4.0,-999.0,97,-99.99,,,0.00,weatherlink.com 1.10,2013-03-10 06:43:00,
2013-03-10 00:58:00,33.7,33.0,29.79,NW,320,0.0,-999.0,97,-99.99,,,0.00,weatherlink.com 1.10,2013-03-10 06:58:00,
2013-03-10 01:13:00,33.7,33.0,29.80,NW,323,1.0,-999.0,97,-99.99,,,0.00,weatherlink.com 1.10,2013-03-10 07:13:00,
2013-03-10 01:28:00,33.7,33.0,29.80,NW,322,4.0,-999.0,97,-99.99,,,0.00,weatherlink.com 1.10,2013-03-10 07:28:00,
2013-03-10 01:43:00,33.7,33.0,29.81,NNW,336,5.0,-999.0,97,-99.99,,,0.00,weatherlink.com 1.10,2013-03-10 07:43:00,
2013-03-10 01:58:00,33.8,33.0,29.81,NW,311,4.0,-999.0,97,-99.99,,,0.00,weatherlink.com 1.10,2013-03-10 07:58:00,
2013-03-10 03:00:00,33.8,33.0,29.81,NW,315,2.0,10.0,97,0.00,,SKC,0.00,VWS V14.01,2013-03-10 08:00:00,
2013-03-10 03:13:00,33.8,33.0,29.81,WNW,296,4.0,-999.0,96,-99.99,,,0.00,weatherlink.com 1.10,2013-03-10 08:13:00,
2013-03-10 03:28:00,33.7,33.0,29.81,WNW,299,0.0,-999.0,96,-99.99,,,0.00,weatherlink.com 1.10,2013-03-10 08:28:00,
2013-03-10 03:30:00,33.8,32.8,29.81,WNW,292,2.0,7.0,96,0.00,,SKC,0.00,VWS V14.01,2013-03-10 08:30:00,
2013-03-10 03:44:00,33.7,33.0,29.81,NNW,337,0.0,-999.0,96,-99.99,,,0.00,weatherlink.com 1.10,2013-03-10 08:44:00,
2013-03-10 03:58:00,33.7,33.0,29.81,NNW,327,4.0,-999.0,95,-99.99,,,0.00,weatherlink.com 1.10,2013-03-10 08:58:00,
2013-03-10 04:00:00,33.7,32.4,29.81,NW,315,2.0,9.0,95,0.00,,SKC,0.00,VWS V14.01,2013-03-10 09:00:00,
2013-03-10 04:13:00,33.8,32.0,29.82,NW,313,2.0,-999.0,94,-99.99,,,0.00,weatherlink.com 1.10,2013-03-10 09:13:00,
2013-03-10 04:28:00,33.9,32.0,29.82,NW,323,4.0,-999.0,91,-99.99,,,0.00,weatherlink.com 1.10,2013-03-10 09:28:00,
2013-03-10 04:30:00,33.9,31.6,29.82,NW,315,4.0,17.0,91,0.00,,SKC,0.00,VWS V14.01,2013-03-10 09:30:00,
2013-03-10 04:43:00,33.8,32.0,29.82,North,5,2.0,-999.0,91,-99.99,,,0.00,weatherlink.com 1.10,2013-03-10 09:43:00,
2013-03-10 04:58:00,33.8,32.0,29.83,NNW,338,0.0,-999.0,91,-99.99,,,0.00,weatherlink.com 1.10,2013-03-10 09:58:00,
2013-03-10 05:00:00,33.8,31.5,29.83,NW,315,2.0,11.0,91,0.00,,SKC,0.00,VWS V14.01,2013-03-10 10:00:00,
2013-03-10 05:13:00,33.7,31.0,29.83,NW,321,2.0,-999.0,91,-99.99,,,0.00,weatherlink.com 1.10,2013-03-10 10:13:00,
2013-03-10 05:28:00,33.7,31.0,29.83,NW,321,0.0,-999.0,91,-99.99,,,0.00,weatherlink.com 1.10,2013-03-10 10:28:00,
2013-03-10 05:30:00,33.7,31.4,29.83,NW,315,2.0,14.0,91,0.00,,SKC,0.00,VWS V14.01,2013-03-10 10:30:00,
2013-03-10 05:43:00,33.7,31.0,29.84,NW,317,2.0,-999.0,90,-99.99,,,0.00,weatherlink.com 1.10,2013-03-10 10:43:00,
2013-03-10 05:58:00,33.7,31.0,29.83,NNW,333,4.0,-999.0,90,-99.99,,,0.00,weatherlink.com 1.10,2013-03-10 10:58:00,
2013-03-10 06:00:00,33.7,30.8,29.83,NW,315,4.0,12.0,89,0.00,,SKC,0.00,VWS V14.01,2013-03-10 11:00:00,
2013-03-10 06:13:00,33.8,31.0,29.84,NNW,342,6.0,-999.0,88,-99.99,,,0.00,weatherlink.com 1.10,2013-03-10 11:13:00,
2013-03-10 06:28:00,33.9,31.0,29.86,NW,308,5.0,-999.0,88,-99.99,,,0.00,weatherlink.com 1.10,2013-03-10 11:28:00,
2013-03-10 06:30:00,33.9,30.7,29.86,NNW,338,4.0,14.0,88,0.00,,SKC,0.00,VWS V14.01,2013-03-10 11:30:00,
2013-03-10 06:43:00,33.9,31.0,29.87,NW,321,4.0,-999.0,88,-99.99,,,0.00,weatherlink.com 1.10,2013-03-10 11:43:00,
2013-03-10 06:58:00,34.0,31.0,29.87,NNW,336,4.0,-999.0,87,-99.99,,,0.00,weatherlink.com 1.10,2013-03-10 11:58:00,
2013-03-10 07:00:00,34.0,30.5,29.87,NW,315,4.0,15.0,87,0.00,,SKC,0.00,VWS V14.01,2013-03-10 12:00:00,
2013-03-10 07:13:00,34.0,31.0,29.88,NW,314,4.0,-999.0,87,-99.99,,,0.00,weatherlink.com 1.10,2013-03-10 12:13:00,
2013-03-10 07:30:00,34.0,30.5,29.88,NNW,338,4.0,12.0,87,0.00,,SKC,0.00,VWS V14.01,2013-03-10 12:30:00,
2013-03-10 07:43:00,33.9,31.0,29.88,North,350,6.0,-999.0,88,-99.99,,,0.00,weatherlink.com 1.10,2013-03-10 12:43:00,
2013-03-10 07:58:00,33.9,31.0,29.89,NNW,348,6.0,-999.0,88,-99.99,,,0.00,weatherlink.com 1.10,2013-03-10 12:58:00,
2013-03-10 08:00:00,33.9,30.7,29.89,NW,315,4.0,13.0,88,0.00,,SKC,0.00,VWS V14.01,2013-03-10 13:00:00,
2013-03-10 08:13:00,33.9,31.0,29.88,NNW,329,8.0,-999.0,88,-99.99,,,0.00,weatherlink.com 1.10,2013-03-10 13:13:00,
2013-03-10 08:28:00,33.8,31.0,29.86,NNW,333,1.0,-999.0,88,-99.99,,,0.00,weatherlink.com 1.10,2013-03-10 13:28:00,
2013-03-10 08:30:00,33.8,30.6,29.86,NW,315,5.0,14.0,88,0.00,,SKC,0.00,VWS V14.01,2013-03-10 13:30:00,
2013-03-10 08:44:00,33.8,31.0,29.92,NNW,346,0.0,-999.0,88,-99.99,,,0.00,weatherlink.com 1.10,2013-03-10 13:44:00,
2013-03-10 08:59:00,33.8,31.0,29.94,NNW,327,5.0,-999.0,88,-99.99,,,0.00,weatherlink.com 1.10,2013-03-10 13:59:00,
2013-03-10 09:00:00,33.8,30.6,29.94,NW,315,2.0,9.0,88,0.00,,SKC,0.00,VWS V14.01,2013-03-10 14:00:00,
2013-03-10 09:14:00,33.7,30.0,29.94,NNW,339,0.0,-999.0,87,-99.99,,,0.00,weatherlink.com 1.10,2013-03-10 14:14:00,
2013-03-10 09:29:00,33.6,30.0,29.94,NW,325,6.0,-999.0,87,-99.99,,,0.00,weatherlink.com 1.10,2013-03-10 14:29:00,
2013-03-10 09:30:00,33.6,30.1,29.94,NW,315,4.0,16.0,87,0.00,,SKC,0.00,VWS V14.01,2013-03-10 14:30:00,
2013-03-10 09:44:00,33.5,30.0,29.95,NW,318,2.0,-999.0,87,-99.99,,,0.00,weatherlink.com 1.10,2013-03-10 14:44:00,
2013-03-10 09:59:00,33.3,30.0,29.95,NW,322,11.0,-999.0,86,-99.99,,,0.00,weatherlink.com 1.10,2013-03-10 14:59:00,
2013-03-10 10:00:00,33.3,29.6,29.95,NW,315,4.0,12.0,86,0.00,,SKC,0.00,VWS V14.01,2013-03-10 15:00:00,
2013-03-10 10:14:00,32.9,29.0,29.92,NW,318,2.0,-999.0,86,-99.99,,,0.00,weatherlink.com 1.10,2013-03-10 15:14:00,
2013-03-10 10:29:00,32.9,29.0,29.95,NW,322,9.0,-999.0,86,-99.99,,,0.00,weatherlink.com 1.10,2013-03-10 15:29:00,
2013-03-10 10:30:00,32.9,29.2,29.95,NW,315,5.0,13.0,86,0.00,,SKC,0.00,VWS V14.01,2013-03-10 15:30:00,
2013-03-10 10:44:00,32.8,29.0,29.96,NNW,340,7.0,-999.0,85,-99.99,,,0.00,weatherlink.com 1.10,2013-03-10 15:44:00,
2013-03-10 10:59:00,32.8,29.0,29.96,WNW,296,7.0,-999.0,84,-99.99,,,0.00,weatherlink.com 1.10,2013-03-10 15:59:00,
2013-03-10 11:00:00,32.8,28.5,29.96,NW,315,6.0,18.0,84,0.00,,SKC,0.00,VWS V14.01,2013-03-10 16:00:00,
2013-03-10 11:14:00,32.7,28.0,29.96,North,360,4.0,-999.0,84,-99.99,,,0.00,weatherlink.com 1.10,2013-03-10 16:14:00,
2013-03-10 11:29:00,32.6,28.0,29.97,NW,323,5.0,-999.0,84,-99.99,,,0.00,weatherlink.com 1.10,2013-03-10 16:29:00,
2013-03-10 11:30:00,32.6,28.3,29.97,NNW,338,5.0,16.0,84,0.00,,SKC,0.00,VWS V14.01,2013-03-10 16:30:00,
2013-03-10 11:44:00,32.9,29.0,29.97,NW,323,5.0,-999.0,84,-99.99,,,0.00,weatherlink.com 1.10,2013-03-10 16:44:00,
2013-03-10 11:59:00,33.2,28.0,29.97,NW,308,7.0,-999.0,82,-99.99,,,0.00,weatherlink.com 1.10,2013-03-10 16:59:00,
2013-03-10 12:00:00,33.2,28.3,29.98,NW,315,4.0,20.0,82,0.00,,SKC,0.00,VWS V14.01,2013-03-10 17:00:00,
2013-03-10 12:14:00,33.2,28.0,29.96,NW,319,5.0,-999.0,81,-99.99,,,0.00,weatherlink.com 1.10,2013-03-10 17:14:00,
2013-03-10 12:29:00,32.9,28.0,29.96,NW,313,14.0,-999.0,81,-99.99,,,0.00,weatherlink.com 1.10,2013-03-10 17:29:00,
2013-03-10 12:30:00,32.9,27.7,29.95,NNW,338,5.0,16.0,81,0.00,,SKC,0.00,VWS V14.01,2013-03-10 17:30:00,
2013-03-10 12:44:00,32.8,28.0,29.98,NNW,336,7.0,-999.0,81,-99.99,,,0.00,weatherlink.com 1.10,2013-03-10 17:44:00,
2013-03-10 12:59:00,32.9,28.0,29.98,ENE,63,4.0,-999.0,81,-99.99,,,0.00,weatherlink.com 1.10,2013-03-10 17:59:00,
2013-03-10 13:00:00,32.9,27.7,29.98,NNW,338,3.0,14.0,81,0.00,,SKC,0.00,VWS V14.01,2013-03-10 18:00:00,
2013-03-10 13:14:00,32.8,27.0,29.97,North,360,5.0,-999.0,80,-99.99,,,0.00,weatherlink.com 1.10,2013-03-10 18:14:00,
2013-03-10 13:29:00,32.9,27.0,29.97,NNW,339,2.0,-999.0,79,-99.99,,,0.00,weatherlink.com 1.10,2013-03-10 18:29:00,
2013-03-10 13:30:00,32.9,27.1,29.98,North,0,4.0,18.0,79,0.00,,SKC,0.00,VWS V14.01,2013-03-10 18:30:00,
2013-03-10 13:44:00,32.9,27.0,29.96,NNW,348,2.0,-999.0,79,-99.99,,,0.00,weatherlink.com 1.10,2013-03-10 18:44:00,
2013-03-10 13:59:00,32.7,27.0,29.95,North,11,3.0,-999.0,80,-99.99,,,0.00,weatherlink.com 1.10,2013-03-10 18:59:00,
2013-03-10 14:00:00,32.7,27.2,29.95,NNW,338,4.0,17.0,80,0.00,,SKC,0.00,VWS V14.01,2013-03-10 19:00:00,
2013-03-10 14:14:00,32.5,27.0,29.95,NW,324,4.0,-999.0,80,-99.99,,,0.00,weatherlink.com 1.10,2013-03-10 19:14:00,
2013-03-10 14:29:00,32.5,27.0,29.95,North,5,6.0,-999.0,80,-99.99,,,0.00,weatherlink.com 1.10,2013-03-10 19:29:00,
2013-03-10 14:30:00,32.5,27.0,29.95,NNW,338,4.0,13.0,80,0.00,,SKC,0.00,VWS V14.01,2013-03-10 19:30:00,
2013-03-10 14:44:00,32.3,27.0,29.95,WNW,301,4.0,-999.0,80,-99.99,,,0.00,weatherlink.com 1.10,2013-03-10 19:44:00,
2013-03-10 14:59:00,32.1,27.0,29.95,NW,323,2.0,-999.0,80,-99.99,,,0.00,weatherlink.com 1.10,2013-03-10 19:59:00,
2013-03-10 15:00:00,32.1,26.9,29.95,NNW,338,4.0,17.0,81,0.00,,SKC,0.00,VWS V14.01,2013-03-10 20:00:00,
2013-03-10 15:14:00,32.2,27.0,29.96,NNW,334,1.0,-999.0,80,-99.99,,,0.00,weatherlink.com 1.10,2013-03-10 20:14:00,
2013-03-10 15:29:00,32.2,27.0,29.96,NW,315,7.0,-999.0,80,-99.99,,,0.00,weatherlink.com 1.10,2013-03-10 20:29:00,
2013-03-10 15:30:00,32.2,26.7,29.96,NNW,338,4.0,14.0,80,0.00,,SKC,0.00,VWS V14.01,2013-03-10 20:30:00,
2013-03-10 15:44:00,32.1,27.0,29.95,NNW,328,2.0,-999.0,81,-99.99,,,0.00,weatherlink.com 1.10,2013-03-10 20:44:00,
2013-03-10 15:59:00,32.0,27.0,29.95,NNW,330,5.0,-999.0,81,-99.99,,,0.00,weatherlink.com 1.10,2013-03-10 20:59:00,
2013-03-10 16:00:00,32.0,26.8,29.95,NNW,338,4.0,13.0,81,0.00,,SKC,0.00,VWS V14.01,2013-03-10 21:00:00,
2013-03-10 16:14:00,32.0,27.0,29.95,NW,315,0.0,-999.0,80,-99.99,,,0.00,weatherlink.com 1.10,2013-03-10 21:14:00,
2013-03-10 16:29:00,32.0,27.0,29.94,NW,321,2.0,-999.0,80,-99.99,,,0.00,weatherlink.com 1.10,2013-03-10 21:29:00,
2013-03-10 16:30:00,32.0,26.5,29.94,NW,315,4.0,14.0,80,0.00,,SKC,0.00,VWS V14.01,2013-03-10 21:30:00,
2013-03-10 16:44:00,31.9,26.0,29.94,NNW,329,6.0,-999.0,79,-99.99,,,0.00,weatherlink.com 1.10,2013-03-10 21:44:00,
2013-03-10 16:59:00,31.8,26.0,29.92,North,349,1.0,-999.0,80,-99.99,,,0.00,weatherlink.com 1.10,2013-03-10 21:59:00,
2013-03-10 17:00:00,31.8,26.4,29.92,NNW,338,5.0,15.0,80,0.00,,SKC,0.00,VWS V14.01,2013-03-10 22:00:00,
2013-03-10 17:14:00,31.7,26.0,29.92,North,360,2.0,-999.0,80,-99.99,,,0.00,weatherlink.com 1.10,2013-03-10 22:14:00,
2013-03-10 17:29:00,31.5,26.0,29.92,NNW,346,5.0,-999.0,80,-99.99,,,0.00,weatherlink.com 1.10,2013-03-10 22:29:00,
2013-03-10 17:30:00,31.5,26.0,29.92,NNW,338,5.0,16.0,80,0.00,,SKC,0.00,VWS V14.01,2013-03-10 22:30:00,
2013-03-10 17:44:00,31.4,26.0,29.93,NNW,347,1.0,-999.0,80,-99.99,,,0.00,weatherlink.com 1.10,2013-03-10 22:44:00,
2013-03-10 17:59:00,31.2,26.0,29.91,NW,315,4.0,-999.0,80,-99.99,,,0.00,weatherlink.com 1.10,2013-03-10 22:59:00,
2013-03-10 18:00:00,31.2,25.8,29.92,NNW,338,5.0,16.0,80,0.00,,SKC,0.00,VWS V14.01,2013-03-10 23:00:00,
2013-03-10 18:14:00,31.0,26.0,29.92,NNW,342,6.0,-999.0,80,-99.99,,,0.00,weatherlink.com 1.10,2013-03-10 23:14:00,
2013-03-10 18:29:00,30.8,25.0,29.92,NNW,332,5.0,-999.0,79,-99.99,,,0.00,weatherlink.com 1.10,2013-03-10 23:29:00,
2013-03-10 18:30:00,30.8,25.1,29.92,NNW,338,4.0,15.0,79,0.00,,SKC,0.00,VWS V14.01,2013-03-10 23:30:00,
2013-03-10 18:44:00,30.6,25.0,29.91,NNW,332,7.0,-999.0,80,-99.99,,,0.00,weatherlink.com 1.10,2013-03-10 23:44:00,
2013-03-10 18:59:00,30.4,25.0,29.92,NW,312,1.0,-999.0,80,-99.99,,,0.00,weatherlink.com 1.10,2013-03-10 23:59:00,
2013-03-10 19:00:00,30.5,24.8,29.92,NNW,338,4.0,12.0,79,0.00,,SKC,0.00,VWS V14.01,2013-03-11 00:00:00,
2013-03-10 19:15:00,30.2,24.0,29.92,NNW,336,4.0,-999.0,79,-99.99,,,0.00,weatherlink.com 1.10,2013-03-11 00:15:00,
2013-03-10 19:30:00,30.1,24.0,29.93,NW,316,6.0,-999.0,79,-99.99,,,0.00,weatherlink.com 1.10,2013-03-11 00:30:00,
2013-03-10 19:45:00,29.9,24.0,29.93,NNW,327,5.0,-999.0,80,-99.99,,,0.00,weatherlink.com 1.10,2013-03-11 00:45:00,
2013-03-10 20:00:00,29.8,24.0,29.93,WNW,291,2.0,-999.0,80,-99.99,,,0.00,weatherlink.com 1.10,2013-03-11 01:00:00,
2013-03-10 20:15:00,29.6,24.0,29.94,NNW,343,2.0,-999.0,81,-99.99,,,0.00,weatherlink.com 1.10,2013-03-11 01:15:00,
2013-03-10 20:30:00,29.5,24.0,29.94,NW,321,0.0,-999.0,81,-99.99,,,0.00,weatherlink.com 1.10,2013-03-11 01:30:00,
2013-03-10 20:45:00,29.4,24.0,29.94,NNW,335,0.0,-999.0,81,-99.99,,,0.00,weatherlink.com 1.10,2013-03-11 01:45:00,
2013-03-10 21:00:00,29.3,24.0,29.94,North,355,2.0,-999.0,82,-99.99,,,0.00,weatherlink.com 1.10,2013-03-11 02:00:00,
2013-03-10 21:15:00,29.2,24.0,29.94,NNE,16,2.0,-999.0,81,-99.99,,,0.00,weatherlink.com 1.10,2013-03-11 02:15:00,
2013-03-10 21:30:00,29.1,24.0,29.94,WNW,298,5.0,-999.0,82,-99.99,,,0.00,weatherlink.com 1.10,2013-03-11 02:30:00,
2013-03-10 21:45:00,29.0,24.0,29.94,NNW,327,4.0,-999.0,81,-99.99,,,0.00,weatherlink.com 1.10,2013-03-11 02:45:00,
2013-03-10 22:00:00,29.0,24.0,29.95,NNW,343,0.0,-999.0,80,-99.99,,,0.00,weatherlink.com 1.10,2013-03-11 03:00:00,
2013-03-10 22:15:00,29.0,24.0,29.95,NW,317,4.0,-999.0,80,-99.99,,,0.00,weatherlink.com 1.10,2013-03-11 03:15:00,
2013-03-10 22:30:00,28.9,23.0,29.94,NNE,13,2.0,-999.0,79,-99.99,,,0.00,weatherlink.com 1.10,2013-03-11 03:30:00,
2013-03-10 22:45:00,28.9,23.0,29.94,NNW,328,1.0,-999.0,80,-99.99,,,0.00,weatherlink.com 1.10,2013-03-11 03:45:00,
2013-03-10 23:00:00,28.7,23.0,29.93,NW,322,4.0,-999.0,80,-99.99,,,0.00,weatherlink.com 1.10,2013-03-11 04:00:00,
2013-03-10 23:15:00,28.6,23.0,29.92,NNW,347,1.0,-999.0,80,-99.99,,,0.00,weatherlink.com 1.10,2013-03-11 04:15:00,
2013-03-10 23:30:00,28.5,23.0,29.91,NW,315,2.0,-999.0,81,-99.99,,,0.00,weatherlink.com 1.10,2013-03-11 04:30:00,
2013-03-10 23:45:00,28.3,23.0,29.91,NW,305,1.0,-999.0,81,-99.99,,,0.00,weatherlink.com 1.10,2013-03-11 04:45:00,